Location: Unspecified
(0.0000°N, 0.0000°E)
Time: 23:29:35
(UTC+01:00)

ISS - All Passes

Search period start: 05 March 2015 00:00
Search period end: 15 March 2015 00:00
Orbit: 397 x 408 km, 51.6° (Epoch: 05 March)

Date Brightness Start Highest point End Pass type
(mag) Time Alt. Az. Time Alt. Az. Time Alt. Az.
05 Mar - 05:28:02 10° SSE 05:29:36 13° SE 05:31:17 10° E visible
05 Mar - 07:03:38 10° W 07:05:57 18° NW 07:08:10 10° N daylight
05 Mar - 18:36:31 10° WNW 18:39:25 29° SW 18:42:18 10° S daylight
06 Mar - 06:09:55 10° SW 06:13:05 50° NW 06:16:13 10° NNE visible
06 Mar - 17:43:19 10° NW 17:46:34 87° NE 17:49:50 10° SE daylight
07 Mar - 05:17:05 10° SSW 05:20:15 47° SE 05:23:22 10° NE visible
07 Mar - 16:50:54 10° N 16:53:41 27° NE 16:56:33 10° ESE daylight
08 Mar - 04:25:07 10° S 04:27:18 17° SE 04:29:34 10° E night (unlit)
08 Mar - 06:01:50 10° W 06:03:38 14° NW 06:05:18 10° NNW visible
08 Mar - 16:00:05 10° NE 16:00:42 11° NE 16:01:31 10° ENE daylight
08 Mar - 17:34:25 10° WNW 17:37:03 22° SW 17:39:39 10° S daylight
09 Mar - 05:07:37 10° WSW 05:10:40 36° NW 05:13:40 10° NNE night (unlit)
09 Mar - 16:40:53 10° NW 16:44:05 67° SW 16:47:20 10° SSE daylight
10 Mar - 04:14:29 10° SSW 04:17:43 67° SE 04:20:56 10° NE night (unlit)
10 Mar - 15:48:08 10° NNW 15:51:08 36° NE 15:54:11 10° ESE daylight
11 Mar - 03:22:08 10° S 03:24:43 22° SE 03:27:20 10° ENE night (unlit)
11 Mar - 05:00:15 10° WNW 05:01:03 11° NW 05:01:40 10° NW night (unlit)
11 Mar - 14:56:25 10° NNE 14:58:05 14° NE 14:59:53 10° E daylight
11 Mar - 16:32:09 10° W 16:34:25 17° SW 16:36:36 10° S daylight
12 Mar - 04:05:06 10° WSW 04:07:58 27° NW 04:10:46 10° N night (unlit)
12 Mar - 15:38:12 10° NW 15:41:20 48° SW 15:44:29 10° SSE daylight
13 Mar - 03:11:39 10° SW 03:14:55 88° NW 03:18:09 10° NE night (unlit)
13 Mar - 14:45:10 10° NNW 14:48:17 49° NE 14:51:27 10° SE daylight
14 Mar - 02:18:58 10° S 02:21:50 28° SE 02:24:43 10° ENE night (unlit)
14 Mar - 13:52:59 10° N 13:55:10 17° NE 13:57:28 10° E daylight
14 Mar - 15:29:45 10° W 15:31:30 13° SW 15:33:07 10° SSW daylight
